This demonstration page uses our WeatherBlox Daily Observations layout. Learn more.

Left ArrowRight Arrow

41.86663, -103.66717

Hourly Observations for May 25, 2021

Temp ( °F °C ) Dew Point ( °F °C ) Humidity (%) Winds ( mph kmh ) Pressure ( in mb ) Visibility ( mi km ) Precip ( " mm )
12:53 am 00:53 Clear 50 10 37 2.8 61 61 WSW 7 11 29.93 1014 10 16 0.00 0.00
1:53 am 01:53 Clear 54 12.2 35 1.7 49 49 WSW 13 20 29.92 1013 10 16 0.00 0.00
2:53 am 02:53 Clear 54 12.2 34 1.1 47 47 W 9 15 29.92 1013 10 16 0.00 0.00
3:53 am 03:53 Clear 55 12.8 34 1.1 45 45 W 9 15 29.92 1013 10 16 0.00 0.00
4:53 am 04:53 Clear 46 7.8 37 2.8 71 71 NNW 8 13 29.95 1014 10 16 0.00 0.00
5:53 am 05:53 Sunny 47 8.3 37 2.8 69 69 NW 6 9 29.95 1014 10 16 0.00 0.00
6:53 am 06:53 Sunny 52 11.1 40 4.4 64 64 NW 6 9 29.95 1014 10 16 0.00 0.00
7:53 am 07:53 Sunny 58 14.4 40 4.4 51 51 WNW 10 17 29.96 1014 10 16 0.00 0.00
8:53 am 08:53 Sunny 64 17.8 42 5.6 45 45 W 17 28 29.96 1015 10 16 0.00 0.00
9:53 am 09:53 Sunny 68 20 48 8.9 49 49 W 14 22 29.96 1015 10 16 0.00 0.00
10:53 am 10:53 Sunny 70 21.1 50 10 49 49 W 10 17 29.98 1015 10 16 0.00 0.00
11:53 am 11:53 Sunny 72 22.2 52 11.1 50 50 WSW 9 15 29.97 1015 10 16 0.00 0.00
12:53 pm 12:53 Sunny 74 23.3 54 12.2 50 50 W 8 13 29.96 1015 10 16 0.00 0.00
1:53 pm 13:53 Mostly Sunny 75 23.9 56 13.3 52 52 WNW 13 20 29.93 1014 10 16 0.00 0.00
2:53 pm 14:53 Sunny 76 24.4 57 13.9 52 52 NW 10 17 29.92 1013 10 16 0.00 0.00
3:53 pm 15:53 Sunny 77 25 58 14.4 52 52 WNW 13 20 29.90 1013 10 16 0.00 0.00
4:53 pm 16:53 Sunny 77 25 58 14.4 52 52 WNW 10 17 29.91 1013 10 16 0.00 0.00
5:53 pm 17:53 Sunny 76 24.4 58 14.4 54 54 NNW 5 7 29.91 1013 10 16 0.00 0.00
6:53 pm 18:53 Sunny 74 23.3 54 12.2 50 50 N 5 7 29.91 1013 10 16 0.00 0.00
7:53 pm 19:53 Sunny 70 21.1 50 10 49 49 ENE 5 7 29.93 1013 10 16 0.00 0.00
8:53 pm 20:53 Clear 61 16.1 44 6.7 54 54 E 7 11 29.95 1014 10 16 0.00 0.00
9:53 pm 21:53 Clear 58 14.4 45 7.2 62 62 E 8 13 29.98 1015 10 16 0.00 0.00
10:53 pm 22:53 Clear 57 13.9 46 7.8 67 67 E 9 15 29.99 1016 10 16 0.00 0.00
11:53 pm 23:53 Clear 56 13.3 46 7.8 70 70 E 9 15 30.01 1016 10 16 0.00 0.00

Powered by AerisWeather